User: anonymous   Login
Location: Unspecified
(0.0000°N, 0.0000°E)
Time: 06:10:10
(UTC+00:00)
Language:

USA 149 - Orbit

View from above orbital plane
View from above orbital plane
View from above satellite
View from above satellite

Ground track
Ground track

The orbit data is extracted from the following two-line orbital elements,

1 26356U 00024A   17295.46764831 0.00000000  00000-0  00000-0 0    04
2 26356  10.6558  33.8432 0005886 121.9138 238.1604  1.00270000    08
Epoch (UTC): 22 October 2017 11:13:24
Eccentricity: 0.0005886
inclination: 10.6558°
perigee height: 35762 km
apogee height: 35811 km
right ascension of ascending node: 33.8432°
argument of perigee: 121.9138°
revolutions per day: 1.00270000
mean anomaly at epoch: 238.1604°
orbit number at epoch: 0

The dashed part of the orbit path shows where the satellite is in the earth's shadow,  

DLR